• Processing (Info)

  • MPEC 2023-J116 : 2023 JF1

    The following Minor Planet Electronic Circular may be linked-to from your own Web pages, but must not otherwise be redistributed electronically.

    A form allowing access to any MPEC is at the bottom of this page.


    Read MPEC 2023-J115 Read MPEC 2023-J117


    M.P.E.C. 2023-J116                                 Issued 2023 May 13, 09:56 UT
    
         The Minor Planet Electronic Circulars contain information on unusual
             minor planets, routine data on comets and natural satellites,
             and occasional editorial announcements.  They are published
        on behalf of Division F of the International Astronomical Union by the
              Minor Planet Center, Smithsonian Astrophysical Observatory,
                              Cambridge, MA 02138, U.S.A.
    			  
                 Prepared using the Tamkin Foundation Computer Network
    
                                  MPC@CFA.HARVARD.EDU
                URL https://www.minorplanetcenter.net/    ISSN 1523-6714
    
                                    2023 JF1                                 
    
    
    Observations:
         K23J01F* C2023 05 10.31453813 27 01.838-26 32 31.39         21.18wXEJ116F52
         K23J01F  C2023 05 10.32404113 27 02.563-26 31 28.86         21.29wXEJ116F52
         K23J01F  C2023 05 10.33353713 27 03.291-26 30 26.27         20.93wXEJ116F52
         K23J01F  C2023 05 10.34304213 27 04.000-26 29 24.43         21.35wXEJ116F52
         K23J01F  C2023 05 10.39984213 27 08.352-26 23 09.97         21.08GVEJ116F51
         K23J01F  C2023 05 10.40048413 27 08.403-26 23 05.86         21.07GVEJ116F51
         K23J01F KC2023 05 11.20232313 28 20.201-24 55 48.83               VEJ116I52
         K23J01F KC2023 05 11.20593613 28 20.554-24 55 25.25               VEJ116I52
         K23J01F KC2023 05 11.20774713 28 20.672-24 55 09.91         21.08GVEJ116I52
         K23J01F KC2023 05 12.33112213 29 57.610-22 54 38.10         21.46GVEJ116I52
         K23J01F KC2023 05 12.33313513 29 57.830-22 54 24.50         20.73GVEJ116I52
         K23J01F KC2023 05 12.33514013 29 58.020-22 54 11.70         21.65GVEJ116I52
         K23J01F  C2023 05 13.32451713 31 24.798-21 10 11.79         21.40wXEJ116F52
         K23J01F  C2023 05 13.33535213 31 25.614-21 09 05.05         21.43wXEJ116F52
         K23J01F  C2023 05 13.34618413 31 26.419-21 07 57.50         21.43wXEJ116F52
    
    Observer details:
    F51 Pan-STARRS 1, Haleakala.  Observers J. Bulger, K. Chambers, T. Lowe, A.
        Schultz, I. Smith.  Measurers S. Chastel, J. Fairlamb, M. Huber, Y.
        Ramanjooloo, R. Wainscoat, R. Weryk.  1.8-m Ritchey-Chretien + CCD.
    F52 Pan-STARRS 2, Haleakala.  Observers J. Bulger, T. Lowe, A. Schultz, I.
        Smith.  Measurers K. Chambers, S. Chastel, T. de Boer, J. Fairlamb, H.
        Gao, M. Huber, C.-C. Lin, E. Magnier, Y. Ramanjooloo, R. Wainscoat, R.
        Weryk.  1.8-m Ritchey-Chretien + CCD.
    I52 Steward Observatory, Mt. Lemmon Station.  Observers R. A. Kowalski, K. W.
        Wierzchos.  Measurers E. J. Christensen, D. Fay, J. B. Fazekas, D. C.
        Fuls, A. R. Gibbs, A. D. Grauer, H. Groeller, J. K. Hogan, R. A. Kowalski,
        S. M. Larson, G. J. Leonard, D. Rankin, R. L. Seaman, A. Serrano, F. C.
        Shelly, K. W. Wierzchos.  1.0-m prime focus + CCD.
    
    Orbital elements:
    2023 JF1                                                 Earth MOID = 0.2945 AU
    Epoch 2023 Feb. 25.0 TT = JDT 2460000.5                 MPC                     
    M 354.82255              (2000.0)            P               Q                  
    n   0.48621441     Peri.  302.31300     -0.88652331     -0.18960837             
    a   1.6017110      Node   230.64440     +0.21627821     -0.97620504             
    e   0.2519099      Incl.   33.08133     -0.40902343     -0.10522537             
    P   2.03           H   22.38          G   0.15           U   9                  
    Residuals in seconds of arc
    230510 F52  0.4+  0.0     230510 F51  0.0   0.1-    230512 I52  0.0   0.2+
    230510 F52  0.3+  0.1+    230511 I52 (1.2-  3.9-)   230512 I52  0.4+  0.1+
    230510 F52  0.3+  0.3+    230511 I52 (0.2-  3.8-)   230513 F52  0.2-  0.4+
    230510 F52  0.0   0.3-    230511 I52  0.5-  0.2-    230513 F52  0.0   0.3-
    230510 F51  0.0   0.1+    230512 I52  0.9-  0.5-    230513 F52  0.0   0.2-
    
    Ephemeris:
    2023 JF1                 a,e,i = 1.60, 0.25, 33                  q = 1.1982
    Date    TT    R. A. (2000) Decl.     Delta      r    Elong.  Phase     V
    2023 04 13    12 31 10.5 -68 29 58   0.3745  1.2314   119.6    45.0    22.4
    ...
    2023 04 28    13 06 32.0 -49 04 56   0.3074  1.2625   141.8    29.6    21.6
    ...
    2023 05 06    13 20 22.9 -34 35 02   0.2994  1.2824   152.9    21.0    21.3
    ...
    2023 05 12    13 29 29.8 -23 29 37   0.3107  1.2986   155.2    19.1    21.4
    2023 05 13    13 30 56.5 -21 43 50   0.3141  1.3014   154.8    19.3    21.4
    2023 05 14    13 32 22.1 -20 00 19   0.3178  1.3042   154.3    19.6    21.5
    ...
    2023 05 20    13 40 39.8 -10 37 30   0.3481  1.3217   148.7    23.4    21.8
    ...
    2023 05 28    13 51 19.7 -01 03 01   0.4055  1.3463   139.1    29.5    22.4
    ...
    2023 06 12    14 11 07.9 +09 17 42   0.5461  1.3954   123.9    37.2    23.3
    
    A. U. Tomatic                (C) Copyright 2023 MPC           M.P.E.C. 2023-J116
    


    Read MPEC 2023-J115 Read MPEC 2023-J117


    MPEC number:

    Enter an MPEC number in one of the following forms:

    • 1997-B01 (the full form)
    • J97B01 (the packed version of the full form)
    • B01 (the abbreviated form)